Date String (YYYY-MM-DD hh:mm:ss) UTC,Instrument flags,absolute air pressure of the measurement (hPa),sample flow rate (lpm),inlet stack bypass flow (lpm),air temperature of the measurement (°C),ambient temperature measured by the external sensor (°C),aerosol sample conditioner tube jacket temperature (°C),OPC LED temperature (°C),internal box temperature (°C),relative humidity of the measurement (%),span deviation,mass concentration of particles derived from Lorenz-Mie calculation of OPC scattering (μg/m³),mass concentration of particles derived from Lorenz-Mie calculation of OPC scattering (μg/m³),mass concentration of particles derived from Lorenz-Mie calculation of OPC scattering (μg/m³)
DateTimeUTC,F1_M11,P_M11,Q1_M11,Q2_M11,T1_M11,T2_M11,T3_M11,T4_M11,T5_M11,U1_M11,ZSPAN_M11,X0_M11,X2_M11,X1_M11
2024-06-01 14:00:00,SystemResetWarning,0829.3,5.00,000.00,030.5,029.7,000.0,038.8,032.1,021.2,0000.0,0014.16,0004.24,0003.35
2024-06-01 14:01:00,SystemResetWarning,0829.3,5.00,000.00,030.5,029.7,000.0,038.8,032.1,021.7,0000.0,0013.72,0004.23,0003.33
2024-06-01 14:02:00,SystemResetWarning,0829.3,5.00,000.00,030.5,029.7,000.0,038.8,032.1,021.3,0000.0,0012.49,0004.21,0003.31
2024-06-01 14:03:00,SystemResetWarning,0829.3,5.00,000.00,030.5,029.8,000.0,038.9,032.2,021.0,0000.0,0012.48,0004.20,0003.31
2024-06-01 14:04:00,SystemResetWarning,0829.3,5.00,000.00,030.5,029.8,000.0,038.9,032.2,020.2,0000.0,0012.31,0004.15,0003.30
2024-06-01 14:05:00,SystemResetWarning,0829.3,4.99,000.00,030.5,029.8,000.0,038.9,032.2,019.4,0000.0,0011.92,0004.10,0003.29
2024-06-01 14:06:00,SystemResetWarning,0829.3,5.00,000.00,030.5,029.8,000.0,038.9,032.2,019.2,0000.0,0013.00,0004.08,0003.28
2024-06-01 14:07:00,SystemResetWarning,0829.3,5.00,000.00,030.5,029.8,000.0,038.9,032.2,019.7,0000.0,0013.17,0004.07,0003.28
2024-06-01 14:08:00,SystemResetWarning,0829.4,5.00,000.00,030.5,029.8,000.0,038.9,032.2,019.9,0000.0,0012.77,0004.04,0003.27
2024-06-01 14:09:00,SystemResetWarning,0829.4,5.00,000.00,030.6,029.8,000.0,038.9,032.2,019.8,0000.0,0012.98,0004.02,0003.28
2024-06-01 14:10:00,SystemResetWarning,0829.4,5.00,000.00,030.6,029.8,000.0,038.9,032.2,020.3,0000.0,0012.27,0003.97,0003.29
2024-06-01 14:11:00,SystemResetWarning,0829.4,5.01,000.00,030.6,029.8,000.0,038.9,032.2,019.5,0000.0,0010.61,0003.95,0003.30
2024-06-01 14:12:00,SystemResetWarning,0829.4,5.00,000.00,030.6,029.9,000.0,038.9,032.3,020.8,0000.0,0009.69,0003.96,0003.29
2024-06-01 14:13:00,SystemResetWarning,0829.4,5.00,000.00,030.6,029.9,000.0,038.9,032.3,021.0,0000.0,0009.73,0003.96,0003.29
2024-06-01 14:14:00,SystemResetWarning,0829.4,5.00,000.00,030.6,029.9,000.0,038.9,032.3,020.7,0000.0,0010.50,0004.02,0003.29
2024-06-01 14:15:00,SystemResetWarning,0829.5,5.01,000.00,030.6,029.9,000.0,039.0,032.3,020.4,0000.0,0010.79,0004.00,0003.28
2024-06-01 14:16:00,SystemResetWarning,0829.5,4.99,000.00,030.6,029.9,000.0,039.0,032.3,021.9,0000.0,0011.78,0004.03,0003.27
2024-06-01 14:17:00,SystemResetWarning,0829.5,5.00,000.00,030.7,029.9,000.0,039.0,032.3,022.7,0000.0,0011.31,0004.04,0003.28
2024-06-01 14:18:00,SystemResetWarning,0829.5,5.00,000.00,030.7,029.9,000.0,039.0,032.3,022.8,0000.0,0011.16,0004.11,0003.30
2024-06-01 14:19:00,SystemResetWarning,0829.5,5.00,000.00,030.7,029.9,000.0,039.0,032.3,022.1,0000.0,0012.35,0004.16,0003.31
2024-06-01 14:20:00,SystemResetWarning,0829.5,5.01,000.00,030.7,029.9,000.0,039.0,032.3,021.3,0000.0,0012.71,0004.21,0003.32
2024-06-01 14:21:00,SystemResetWarning,0829.5,5.00,000.00,030.7,030.0,000.0,039.0,032.3,021.4,0000.0,0013.20,0004.28,0003.32
2024-06-01 14:22:00,SystemResetWarning,0829.4,5.00,000.00,030.7,030.0,000.0,039.0,032.3,021.4,0000.0,0013.70,0004.33,0003.33
2024-06-01 14:23:00,SystemResetWarning,0829.4,5.00,000.00,030.7,030.0,000.0,039.0,032.3,021.8,0000.0,0014.11,0004.37,0003.34
2024-06-01 14:24:00,SystemResetWarning,0829.4,5.01,000.00,030.7,030.0,000.0,039.0,032.3,021.5,0000.0,0014.28,0004.40,0003.34
2024-06-01 14:25:00,SystemResetWarning,0829.3,4.99,000.00,030.7,030.0,000.0,039.1,032.4,022.0,0000.0,0014.15,0004.38,0003.32
2024-06-01 14:26:00,SystemResetWarning,0829.4,5.00,000.00,030.7,030.0,000.0,039.1,032.3,021.4,0000.0,0014.52,0004.43,0003.33
2024-06-01 14:27:00,SystemResetWarning,0829.3,5.00,000.00,030.7,030.0,000.0,039.1,032.4,021.1,0000.0,0014.17,0004.43,0003.34
2024-06-01 14:28:00,SystemResetWarning,0829.4,5.00,000.00,030.7,030.0,000.0,039.1,032.4,020.0,0000.0,0013.79,0004.48,0003.34
2024-06-01 14:29:00,SystemResetWarning,0829.3,5.00,000.00,030.8,030.0,000.0,039.1,032.4,019.8,0000.0,0013.60,0004.46,0003.31
2024-06-01 14:30:00,SystemResetWarning,0829.3,5.01,000.00,030.8,030.0,000.0,039.1,032.4,019.1,0000.0,0013.35,0004.46,0003.29
2024-06-01 14:31:00,SystemResetWarning,0829.4,5.01,000.00,030.8,030.1,000.0,039.1,032.4,018.8,0000.0,0014.78,0004.48,0003.26
2024-06-01 14:32:00,SystemResetWarning,0829.4,5.01,000.00,030.8,030.1,000.0,039.1,032.4,017.7,0000.0,0016.76,0004.48,0003.23
2024-06-01 14:33:00,SystemResetWarning,0829.4,5.00,000.00,030.8,030.1,000.0,039.1,032.4,017.8,0000.0,0017.84,0004.47,0003.20
2024-06-01 14:34:00,SystemResetWarning,0829.4,4.99,000.00,030.8,030.1,000.0,039.1,032.4,018.2,0000.0,0017.73,0004.41,0003.17
2024-06-01 14:35:00,SystemResetWarning,0829.4,5.00,000.00,030.8,030.1,000.0,039.1,032.4,018.1,0000.0,0017.57,0004.36,0003.14
2024-06-01 14:36:00,SystemResetWarning,0829.4,5.00,000.00,030.8,030.1,000.0,039.2,032.5,017.9,0000.0,0017.37,0004.30,0003.12
2024-06-01 14:37:00,SystemResetWarning,0829.4,5.00,000.00,030.8,030.1,000.0,039.2,032.5,018.3,0000.0,0017.27,0004.26,0003.08
2024-06-01 14:38:00,SystemResetWarning,0829.4,4.99,000.00,030.8,030.1,000.0,039.2,032.5,017.9,0000.0,0016.85,0004.26,0003.04
2024-06-01 14:39:00,SystemResetWarning,0829.4,5.00,000.00,030.9,030.2,000.0,039.2,032.5,017.4,0000.0,0017.26,0004.26,0003.00
2024-06-01 14:40:00,SystemResetWarning,0829.5,4.99,000.00,030.9,030.2,000.0,039.2,032.5,016.7,0000.0,0017.66,0004.25,0002.96
2024-06-01 14:41:00,SystemResetWarning,0829.4,5.00,000.00,030.9,030.2,000.0,039.2,032.5,017.0,0000.0,0018.56,0004.24,0002.93
2024-06-01 14:42:00,SystemResetWarning,0829.5,5.01,000.00,030.9,030.2,000.0,039.2,032.5,019.2,0000.0,0017.47,0004.24,0002.93
2024-06-01 14:43:00,SystemResetWarning,0829.4,5.01,000.00,030.9,030.2,000.0,039.2,032.5,021.3,0000.0,0018.82,0004.28,0002.95
2024-06-01 14:44:00,SystemResetWarning,0829.5,5.01,000.00,030.9,030.2,000.0,039.2,032.6,021.4,0000.0,0017.91,0004.31,0002.97
2024-06-01 14:45:00,SystemResetWarning,0829.5,5.00,000.00,030.9,030.2,000.0,039.2,032.6,021.2,0000.0,0017.84,0004.42,0003.01
2024-06-01 14:46:00,SystemResetWarning,0829.5,5.00,000.00,030.9,030.2,000.0,039.2,032.6,021.2,0000.0,0018.57,0004.55,0003.07
2024-06-01 14:47:00,SystemResetWarning,0829.5,5.00,000.00,031.0,030.2,000.0,039.3,032.6,021.0,0000.0,0021.60,0004.61,0003.10
2024-06-01 14:48:00,SystemResetWarning,0829.4,5.00,000.00,031.0,030.2,000.0,039.3,032.6,021.0,0000.0,0023.51,0004.67,0003.12
2024-06-01 14:49:00,SystemResetWarning,0829.4,5.00,000.00,031.0,030.3,000.0,039.3,032.6,020.8,0000.0,0025.27,0004.72,0003.15
2024-06-01 14:50:00,SystemResetWarning,0829.4,5.01,000.00,031.0,030.3,000.0,039.3,032.6,020.9,0000.0,0025.74,0004.78,0003.16
2024-06-01 14:51:00,SystemResetWarning,0829.4,5.01,000.00,031.0,030.3,000.0,039.3,032.6,020.7,0000.0,0026.74,0004.86,0003.19
2024-06-01 14:52:00,SystemResetWarning,0829.4,5.00,000.00,031.0,030.3,000.0,039.3,032.6,021.0,0000.0,0026.33,0005.01,0003.22
2024-06-01 14:53:00,SystemResetWarning,0829.4,4.99,000.00,031.0,030.3,000.0,039.3,032.6,021.6,0000.0,0026.12,0005.11,0003.25
2024-06-01 14:54:00,SystemResetWarning,0829.3,4.99,000.00,031.0,030.3,000.0,039.3,032.6,021.3,0000.0,0023.24,0005.10,0003.26
2024-06-01 14:55:00,SystemResetWarning,0829.3,5.00,000.00,031.0,030.3,000.0,039.3,032.6,020.6,0000.0,0022.35,0005.09,0003.28
2024-06-01 14:56:00,SystemResetWarning,0829.4,5.00,000.00,031.0,030.3,000.0,039.4,032.6,020.4,0000.0,0022.37,0005.08,0003.29
2024-06-01 14:57:00,SystemResetWarning,0829.4,5.01,000.00,031.0,030.3,000.0,039.4,032.6,020.1,0000.0,0022.73,0005.09,0003.30
2024-06-01 14:58:00,SystemResetWarning,0829.4,5.00,000.00,031.1,030.3,000.0,039.4,032.6,020.3,0000.0,0021.20,0005.12,0003.30
2024-06-01 14:59:00,SystemResetWarning,0829.3,5.01,000.00,031.1,030.4,000.0,039.4,032.7,019.9,0000.0,0018.77,0005.12,0003.31
